15min,AgWx,beryljct,423,21OCT2019:00:00:00,25.6,12.86,21.5,21.6,22.8,23.2,21.6,66,75,61,0.298,12.9,15.0,11.6,4.012,1.4,112,10,4.0,-0.00010,-0.00013,45.3,50.1,8,0,.,.,5.79,0.00,0.00
15min,AgWx,beryljct,423,21OCT2019:00:15:00,25.1,12.85,23.4,23.3,22.3,23.6,21.5,65,75,54,0.236,12.1,14.8,9.3,1.556,2.0,132,11,3.9,-0.00006,-0.00007,45.0,50.0,8,0,.,.,5.80,0.00,0.00
15min,AgWx,beryljct,423,21OCT2019:00:30:00,24.8,12.83,22.6,22.5,22.5,23.2,22.1,62,68,56,0.281,11.5,13.6,9.6,0,1.5,133,14,2.8,-0.00009,-0.00010,44.8,50.0,8,0,.,.,5.79,0.00,0.00
15min,AgWx,beryljct,423,21OCT2019:00:45:00,24.4,12.83,19.0,18.9,20.8,22.4,18.9,72,74,69,0.251,13.3,14.6,11.0,3.683,2.0,79,75,3.9,-0.00008,-0.00009,44.5,49.9,8,0,.,.,5.80,0.00,0.00
15min,AgWx,beryljct,423,21OCT2019:01:00:00,23.7,12.81,18.2,17.7,18.1,18.9,17.7,65,71,59,0.199,8.3,10.9,5.9,1.052,1.8,334,1.8,3.8,-0.00007,-0.00008,44.3,49.8,8,0,.,.,5.80,0.00,0.00
15min,AgWx,beryljct,423,21OCT2019:01:15:00,22.8,12.81,22.3,21.3,19.4,21.3,17.7,55,59,53,0.217,5.8,7.8,4.4,0,0.4,334,0.1,2.1,-0.00015,-0.00022,44.0,49.8,8,0,.,.,5.80,0.00,0.00
15min,AgWx,beryljct,423,21OCT2019:01:30:00,22.4,12.8,21.0,20.4,20.3,21.6,19.9,64,67,55,0.234,9.9,11.0,7.8,0.877,0.6,292,46,1.4,-0.00014,-0.00021,43.8,49.7,8,0,.,.,5.80,0.00,0.00
15min,AgWx,beryljct,423,21OCT2019:01:45:00,22.1,12.79,20.4,22.1,21.2,22.8,20.0,60,62,56,0.229,9.3,10.4,7.8,0,0.3,223,0.0,1.4,-0.00017,-0.00025,43.5,49.6,8,0,.,.,5.80,0.00,0.00
15min,AgWx,beryljct,423,21OCT2019:02:00:00,21.9,12.78,19.1,18.8,20.2,21.9,18.8,66,74,56,0.260,10.5,11.9,8.4,0.811,0.7,155,70,2.9,-0.00013,-0.00019,43.3,49.5,8,0,.,.,5.80,0.00,0.00
15min,AgWx,beryljct,423,21OCT2019:02:15:00,21.6,12.76,21.1,20.6,19.6,20.6,18.8,72,76,65,0.248,12.0,12.7,10.7,0.68,0.4,117,7.9,1.5,-0.00015,-0.00023,43.1,49.5,8,0,.,.,5.80,0.00,0.00
15min,AgWx,beryljct,423,21OCT2019:02:30:00,21.3,12.75,18.8,18.5,19.1,20.6,18.2,70,75,65,0.262,10.8,12.0,9.1,0,0.9,97,24,6.8,-0.00012,-0.00016,42.9,49.4,8,0,.,.,5.80,0.00,0.00
15min,AgWx,beryljct,423,21OCT2019:02:45:00,21.0,12.74,20.1,18.9,18.8,19.4,18.4,78,81,75,0.277,13.2,14.1,12.0,0.811,1.6,144,33,4.5,-0.00009,-0.00012,42.7,49.3,8,0,.,.,5.80,0.00,0.00
15min,AgWx,beryljct,423,21OCT2019:03:00:00,21.0,12.72,19.6,19.8,19.6,20.2,19.0,73,78,70,0.265,12.3,13.5,11.6,0,2.4,188,59,6.5,-0.00006,-0.00007,42.5,49.2,8,0,.,.,5.80,0.00,0.00
15min,AgWx,beryljct,423,21OCT2019:03:15:00,21.0,12.71,19.8,20.7,20.5,21.6,19.6,69,73,65,0.262,11.7,12.5,10.8,5.108,1.2,76,21,5.1,-0.00011,-0.00014,42.3,49.1,8,0,.,.,5.80,0.00,0.00
15min,AgWx,beryljct,423,21OCT2019:03:30:00,21.0,12.71,19.0,18.5,19.6,20.9,18.4,74,78,69,0.270,12.5,13.6,12.0,0.088,3.0,82,15,6.4,-0.00004,-0.00004,42.2,49.0,8,0,.,.,5.80,0.00,0.00
15min,AgWx,beryljct,423,21OCT2019:03:45:00,20.9,12.7,20.2,19.9,19.3,20.4,18.4,77,79,72,0.271,13.3,13.9,12.5,3.42,3.4,212,27,5.3,-0.00004,-0.00004,42.0,48.9,8,0,.,.,5.81,0.00,0.00
15min,AgWx,beryljct,423,21OCT2019:04:00:00,20.8,12.69,19.4,20.1,20.2,21.1,19.4,69,74,62,0.255,11.5,12.7,10.0,2.258,1.0,183,18,3.8,-0.00012,-0.00016,41.8,48.9,8,0,.,.,5.80,0.00,0.00
15min,AgWx,beryljct,423,21OCT2019:04:15:00,20.7,12.68,19.3,18.7,19.0,19.9,18.4,70,72,65,0.241,10.7,11.8,9.9,3.639,2.3,197,49,4.0,-0.00005,-0.00006,41.7,48.8,8,0,.,.,5.81,0.00,0.00
15min,AgWx,beryljct,423,21OCT2019:04:30:00,20.6,12.68,20.7,19.6,18.9,19.6,18.4,67,69,64,0.251,9.6,11.0,8.6,4.494,2.5,89,61,5.1,-0.00005,-0.00005,41.5,48.7,8,0,.,.,5.80,0.00,0.00
15min,AgWx,beryljct,423,21OCT2019:04:45:00,20.4,12.67,19.2,18.1,19.1,20.6,17.8,71,76,69,0.243,11.3,13.2,9.6,1.403,2.0,74,54,5.0,-0.00007,-0.00008,41.4,48.6,8,0,.,.,5.80,0.00,0.00
15min,AgWx,beryljct,423,21OCT2019:05:00:00,20.1,12.66,17.6,17.3,18.1,18.8,17.3,69,72,66,0.230,9.7,11.0,8.4,0.417,0.7,20,3.4,2.1,-0.00012,-0.00017,41.2,48.5,8,0,.,.,5.80,0.00,0.00
15min,AgWx,beryljct,423,21OCT2019:05:15:00,19.7,12.65,20.7,19.2,18.0,19.2,17.3,71,73,68,0.255,10.1,11.5,9.1,2.916,0.5,353,24,3.0,-0.00014,-0.00021,41.1,48.4,8,0,.,.,5.80,0.00,0.00
15min,AgWx,beryljct,423,21OCT2019:05:30:00,19.7,12.65,19.2,19.2,19.6,20.4,19.2,66,71,64,0.237,10.2,11.4,9.5,1.71,1.3,274,1.5,3.4,-0.00010,-0.00012,40.9,48.3,8,0,.,.,5.81,0.00,0.00
15min,AgWx,beryljct,423,21OCT2019:05:45:00,19.7,12.65,19.7,20.1,19.7,20.8,18.8,65,70,56,0.211,9.8,11.1,7.1,3.705,1.6,299,20,3.9,-0.00008,-0.00010,40.8,48.2,8,0,.,.,5.81,0.00,0.00
15min,AgWx,beryljct,423,21OCT2019:06:00:00,19.7,12.64,16.0,15.0,16.8,20.0,14.6,63,68,57,0.204,6.4,7.5,5.5,4.275,3.7,34,35,7.7,0.00000,0.00001,40.6,48.2,8,0,.,.,5.81,0.00,0.00
15min,AgWx,beryljct,423,21OCT2019:06:15:00,19.0,12.63,17.2,16.6,15.9,16.6,15.1,71,73,68,0.230,8.0,9.1,6.6,0.921,1.2,79,71,4.1,0.00004,0.00008,40.5,48.0,8,0,.,.,5.81,0.00,0.00
15min,AgWx,beryljct,423,21OCT2019:06:30:00,18.6,12.63,16.8,16.5,17.0,17.7,16.5,70,72,68,0.227,8.9,9.2,8.6,1.863,1.4,312,55,3.8,0.00005,0.00009,40.4,48.0,8,0,.,.,5.81,0.00,0.00
15min,AgWx,beryljct,423,21OCT2019:06:45:00,18.5,12.64,20.0,19.3,17.9,19.3,16.5,69,72,68,0.250,9.6,10.9,8.8,2.433,3.3,284,9.7,5.7,0.00012,0.00020,40.3,47.9,8,3,.,.,5.81,0.00,0.00
15min,AgWx,beryljct,423,21OCT2019:07:00:00,18.9,12.68,22.9,21.3,20.9,21.7,19.3,64,70,61,0.249,10.7,11.4,10.0,0,1.9,270,1.8,3.7,0.00013,0.00019,40.2,47.8,8,12,.,.,5.81,0.00,0.00
15min,AgWx,beryljct,423,21OCT2019:07:15:00,19.6,12.71,20.9,20.7,21.5,22.2,20.6,62,70,58,0.267,10.5,12.5,9.6,0,1.9,146,36,3.9,0.00020,0.00027,40.0,47.7,8,31,.,.,5.80,0.00,0.00
15min,AgWx,beryljct,423,21OCT2019:07:30:00,20.3,12.99,21.9,21.2,20.8,21.2,20.5,72,74,70,0.290,13.1,14.3,12.5,1.6,0.7,92,13,3.1,0.00024,0.00028,39.9,47.6,8,68,.,.,5.80,0.00,0.00
15min,AgWx,beryljct,423,21OCT2019:07:45:00,22.1,13.52,26.1,25.0,23.4,25.0,21.2,67,74,61,0.278,14.1,14.5,13.3,2.105,1.3,89,46,2.5,0.00041,0.00048,39.8,47.5,8,128,.,.,5.80,0.00,0.00
15min,AgWx,beryljct,423,21OCT2019:08:00:00,24.8,14.87,26.6,26.5,26.3,26.6,25.0,62,65,59,0.307,14.9,16.2,13.3,0,0.3,219,0.1,1.9,0.00055,0.00060,39.7,47.4,8,171,.,.,5.80,0.00,0.00
15min,AgWx,beryljct,423,21OCT2019:08:15:00,27.8,14.84,27.9,27.7,27.0,27.7,26.4,64,66,62,0.321,16.5,17.5,15.5,2.061,0.5,194,30,2.1,0.00069,0.00076,39.6,47.4,8,210,.,.,5.80,0.00,0.00
15min,AgWx,beryljct,423,21OCT2019:08:30:00,30.5,14.78,30.8,30.3,28.7,30.3,27.8,58,63,53,0.310,15.6,16.7,14.4,4.867,3.3,140,11,5.1,0.00094,0.00113,39.5,47.3,8,259,.,.,5.80,0.00,0.00
15min,AgWx,beryljct,423,21OCT2019:08:45:00,33.0,14.71,35.0,34.2,32.3,34.2,30.4,48,54,45,0.298,14.8,16.0,13.6,3.354,3.4,153,8.6,4.6,0.00120,0.00147,39.4,47.2,8,300,.,.,5.80,0.00,0.00
15min,AgWx,beryljct,423,21OCT2019:09:00:00,35.8,14.7,37.2,37.3,35.7,37.3,34.2,43,46,38,0.289,15.4,16.4,14.2,2.631,3.2,151,14,4.7,0.00147,0.00178,39.3,47.1,8,346,.,.,5.79,0.00,0.00
15min,AgWx,beryljct,423,21OCT2019:09:15:00,39.0,14.6,41.2,40.8,38.8,40.8,37.4,39,41,35,0.306,15.7,16.6,14.0,2.455,1.6,135,31,3.1,0.00167,0.00191,39.3,47.0,8,382,.,.,5.79,0.00,0.00
15min,AgWx,beryljct,423,21OCT2019:09:30:00,42.4,14.53,43.5,42.8,42.1,42.8,40.8,37,39,35,0.353,17.6,19.5,15.7,0.351,1.6,79,60,3.6,0.00199,0.00228,39.2,46.9,9,435,.,.,5.79,0.00,0.00
15min,AgWx,beryljct,423,21OCT2019:09:45:00,45.8,14.58,44.9,45.7,44.3,45.9,42.9,35,38,31,0.329,18.6,20.1,16.5,0,1.2,94,10,3.5,0.00228,0.00255,39.2,46.9,8,489,.,.,5.79,0.00,0.00
15min,AgWx,beryljct,423,21OCT2019:10:00:00,49.0,14.46,47.8,46.9,46.1,47.0,45.1,33,35,32,0.368,18.9,20.9,17.3,2.916,2.1,73,29,4.9,0.00252,0.00289,39.3,46.8,8,514,.,.,5.79,0.00,0.00
15min,AgWx,beryljct,423,21OCT2019:10:15:00,51.3,14.02,48.6,48.9,48.2,49.1,47.0,33,34,31,0.379,20.2,21.7,18.6,3.617,3.8,105,17,6.3,0.00286,0.00343,39.4,46.7,8,550,.,.,5.78,0.00,0.00
15min,AgWx,beryljct,423,21OCT2019:10:30:00,52.7,13.99,49.9,50.3,49.7,50.6,48.9,34,37,32,0.415,22.7,25.4,20.3,3.946,4.9,71,11,6.7,0.00307,0.00374,39.5,46.6,8,573,.,.,5.78,0.00,0.00
15min,AgWx,beryljct,423,21OCT2019:10:45:00,54.2,13.95,52.7,51.8,51.4,52.1,50.3,34,35,32,0.423,23.6,24.8,22.3,0.197,2.3,88,24,4.4,0.00313,0.00360,39.8,46.6,8,592,.,.,5.78,0.00,0.00
15min,AgWx,beryljct,423,21OCT2019:11:00:00,56.2,13.99,53.8,53.6,53.4,54.2,51.9,31,33,29,0.427,23.6,25.6,22.3,2.17,1.9,86,73,5.7,0.00323,0.00367,40.2,46.5,8,596,.,.,5.77,0.00,0.00
15min,AgWx,beryljct,423,21OCT2019:11:15:00,58.3,13.9,55.4,55.3,54.6,55.5,53.6,29,30,28,0.433,23.1,24.4,22.3,0.548,1.2,345,49,3.0,0.00328,0.00365,40.6,46.4,8,605,.,.,5.77,0.00,0.00
15min,AgWx,beryljct,423,21OCT2019:11:30:00,60.3,13.86,58.0,57.6,56.3,57.6,55.3,27,29,26,0.419,23.0,24.0,22.1,0.767,1.3,341,55,4.4,0.00351,0.00393,41.1,46.4,8,637,.,.,5.77,0.00,0.00
15min,AgWx,beryljct,423,21OCT2019:11:45:00,61.8,13.85,57.2,57.9,57.6,58.0,57.0,25,26,22,0.386,21.5,23.4,19.5,0.943,2.7,330,32,7.5,0.00374,0.00436,41.7,46.4,8,649,.,.,5.77,0.00,0.00
15min,AgWx,beryljct,423,21OCT2019:12:00:00,62.9,13.85,58.3,59.6,58.8,60.1,57.8,22,24,19,0.349,19.6,21.4,17.6,3.464,3.3,300,63,7.1,0.00385,0.00457,42.3,46.3,8,648,.,.,5.76,0.00,0.00
15min,AgWx,beryljct,423,21OCT2019:12:15:00,63.5,13.79,59.9,60.0,59.5,60.0,59.1,20,22,19,0.360,18.7,20.7,17.6,2.061,3.3,349,42,8.8,0.00387,0.00461,42.9,46.3,8,649,.,.,5.76,0.00,0.00
15min,AgWx,beryljct,423,21OCT2019:12:30:00,64.2,13.79,61.1,59.8,60.4,60.9,59.8,21,24,20,0.381,20.3,23.7,18.6,1.403,5.0,332,40,8.6,0.00404,0.00501,43.6,46.3,8,643,.,.,5.76,0.00,0.00
15min,AgWx,beryljct,423,21OCT2019:12:45:00,65.0,13.81,60.0,60.4,60.7,61.6,59.6,21,23,19,0.356,20.4,22.7,18.6,2.368,2.4,29,88,7.9,0.00382,0.00445,44.2,46.3,8,653,.,.,5.76,0.00,0.00
15min,AgWx,beryljct,423,21OCT2019:13:00:00,65.7,13.82,62.6,61.5,61.1,61.7,60.3,20,21,19,0.350,19.5,20.6,18.6,0.373,2.8,278,47,6.5,0.00398,0.00469,44.9,46.3,8,668,.,.,5.76,0.00,0.00
15min,AgWx,beryljct,423,21OCT2019:13:15:00,66.5,13.77,61.7,61.6,61.5,62.1,60.7,21,25,19,0.373,21.2,25.5,18.3,1.469,2.9,63,65,7.1,0.00379,0.00448,45.5,46.3,8,634,.,.,5.75,0.00,0.00
15min,AgWx,beryljct,423,21OCT2019:13:30:00,67.1,13.74,62.2,62.0,62.1,62.9,61.5,21,26,18,0.354,21.4,27.1,18.0,2.433,4.4,6.4,47,9.1,0.00398,0.00490,46.2,46.4,8,633,.,.,5.75,0.00,0.00
15min,AgWx,beryljct,423,21OCT2019:13:45:00,67.5,13.69,61.4,61.8,61.7,62.6,61.1,23,28,18,0.458,23.1,28.8,18.2,9.45,4.7,90,57,10.8,0.00389,0.00480,46.8,46.4,8,619,.,.,5.75,0.00,0.00
15min,AgWx,beryljct,423,21OCT2019:14:00:00,67.4,13.71,62.0,62.3,62.0,62.6,61.6,22,27,18,0.512,23.2,27.7,18.3,3.902,5.9,56,31,9.5,0.00377,0.00484,47.4,46.5,8,571,.,.,5.75,0.00,0.00
15min,AgWx,beryljct,423,21OCT2019:14:15:00,67.6,13.68,61.8,62.5,62.0,62.6,61.5,22,27,20,0.407,23.0,27.9,20.1,5.239,4.5,63,26,7.7,0.00338,0.00425,48.1,46.5,8,534,.,.,5.75,0.00,0.00
15min,AgWx,beryljct,423,21OCT2019:14:30:00,67.9,13.65,63.5,62.5,62.4,62.9,61.9,20,23,18,0.416,20.7,25.1,17.7,3.157,6.2,38,21,11.6,0.00367,0.00480,48.7,46.6,8,543,.,.,5.76,0.00,0.00
15min,AgWx,beryljct,423,21OCT2019:14:45:00,68.1,13.72,61.9,62.2,62.5,63.1,62.1,21,23,18,0.377,21.5,24.2,18.5,8.83,7.3,53,18,12.7,0.00359,0.00483,49.2,46.7,8,507,.,.,5.75,0.00,0.00
15min,AgWx,beryljct,423,21OCT2019:15:00:00,67.9,13.67,62.1,62.3,62.4,62.8,62.0,20,24,17,0.377,21.0,25.7,16.8,5.393,5.1,63,16,9.7,0.00304,0.00400,49.8,46.8,8,458,.,.,5.75,0.00,0.00
15min,AgWx,beryljct,423,21OCT2019:15:15:00,67.9,13.73,62.5,62.5,62.5,62.8,62.2,19,22,17,0.356,20.2,23.1,17.1,4.932,7.6,54,14,11.9,0.00330,0.00458,50.3,47.0,8,447,.,.,5.76,0.00,0.00
15min,AgWx,beryljct,423,21OCT2019:15:30:00,67.6,13.66,63.0,63.0,62.9,63.6,62.5,20,22,17,0.385,21.0,23.9,17.1,7.453,6.5,60,22,11.4,0.00297,0.00410,50.7,47.1,8,410,.,.,5.76,0.00,0.00
15min,AgWx,beryljct,423,21OCT2019:15:45:00,67.4,13.67,62.4,62.6,62.9,63.2,62.6,20,23,18,0.438,21.3,24.3,18.6,8.09,8.1,53,15,11.5,0.00296,0.00427,51.1,47.3,8,373,.,.,5.76,0.00,0.00
15min,AgWx,beryljct,423,21OCT2019:16:00:00,67.2,13.67,61.8,62.0,62.6,63.1,62.0,20,23,18,0.387,21.5,24.3,18.5,10.96,7.4,58,19,11.1,0.00264,0.00384,51.5,47.4,8,334,.,.,5.76,0.00,0.00
15min,AgWx,beryljct,423,21OCT2019:16:15:00,66.6,13.66,61.6,61.3,61.6,62.1,61.3,21,23,18,0.405,21.3,23.3,18.5,9.23,8.6,76,15,12.1,0.00253,0.00384,51.8,47.6,8,293,.,.,5.76,0.00,0.00
15min,AgWx,beryljct,423,21OCT2019:16:30:00,65.6,13.71,61.4,60.9,61.1,61.4,60.8,22,25,20,0.394,22.4,24.8,20.2,5.546,6.5,78,11,9.4,0.00192,0.00293,52.0,47.7,8,242,.,.,5.76,0.00,0.00
15min,AgWx,beryljct,423,21OCT2019:16:45:00,64.9,13.69,59.9,60.3,60.7,61.1,60.3,23,27,19,0.439,22.3,26.4,18.8,5.283,4.6,82,11,6.8,0.00135,0.00209,52.2,47.9,8,196,.,.,5.76,0.00,0.00
15min,AgWx,beryljct,423,21OCT2019:17:00:00,63.9,13.73,58.0,59.0,59.7,60.3,59.0,24,26,22,0.447,22.7,24.4,20.6,3.793,5.1,74,7.7,6.9,0.00076,0.00102,52.4,48.0,8,150,.,.,5.76,0.00,0.00
15min,AgWx,beryljct,423,21OCT2019:17:15:00,62.7,13.78,58.0,57.3,58.4,59.0,57.3,25,27,21,0.420,22.5,25.1,19.5,5.875,5.7,63,6.5,7.6,0.00068,0.00091,52.5,48.2,8,108,.,.,5.76,0.00,0.00
15min,AgWx,beryljct,423,21OCT2019:17:30:00,61.0,13.32,55.9,56.3,57.1,57.8,56.3,24,26,24,0.382,21.2,22.5,20.1,4.911,5.1,62,5.1,6.9,0.00053,0.00073,52.6,48.3,8,65,.,.,5.77,0.00,0.00
15min,AgWx,beryljct,423,21OCT2019:17:45:00,58.7,13.2,55.5,55.4,55.7,56.4,55.3,24,25,22,0.336,19.1,20.6,17.6,4.012,4.3,59,4.6,5.4,0.00033,0.00048,52.5,48.5,8,12,.,.,5.77,0.00,0.00
15min,AgWx,beryljct,423,21OCT2019:18:00:00,56.0,13.15,52.4,52.4,53.7,55.4,52.3,23,24,22,0.317,16.9,18.6,15.9,3.924,4.0,40,8.1,5.0,0.00027,0.00041,52.5,48.6,8,5,.,.,5.77,0.00,0.00
15min,AgWx,beryljct,423,21OCT2019:18:15:00,53.6,13.12,52.2,51.8,52.0,52.4,51.6,24,25,24,0.316,16.3,16.6,16.0,4.494,3.8,32,4.8,4.5,0.00022,0.00034,52.4,48.8,8,1,.,.,5.77,0.00,0.00
15min,AgWx,beryljct,423,21OCT2019:18:30:00,52.0,13.11,51.9,51.5,52.4,53.2,51.5,23,24,22,0.305,15.7,16.3,15.1,3.814,3.9,15,9.3,5.0,0.00024,0.00037,52.2,48.9,8,0,.,.,5.78,0.00,0.00
15min,AgWx,beryljct,423,21OCT2019:18:45:00,50.7,13.08,45.6,47.0,49.5,51.7,47.0,25,28,23,0.312,15.5,16.0,15.2,3.617,3.2,352,9.8,4.4,0.00014,0.00024,52.0,49.1,8,0,.,.,5.77,0.00,0.00
15min,AgWx,beryljct,423,21OCT2019:19:00:00,48.9,13.07,46.5,45.5,45.6,46.8,44.5,30,32,29,0.314,15.9,16.3,15.2,2.411,3.4,327,11,4.3,0.00014,0.00022,51.7,49.2,8,0,.,.,5.78,0.00,0.00
15min,AgWx,beryljct,423,21OCT2019:19:15:00,47.3,13.07,46.7,46.1,45.9,46.4,45.4,29,30,28,0.309,15.5,16.0,15.2,1.425,2.2,332,18,3.8,0.00001,0.00005,51.5,49.3,8,0,.,.,5.78,0.00,0.00
15min,AgWx,beryljct,423,21OCT2019:19:30:00,46.2,13.06,47.2,47.2,46.5,47.2,46.0,29,30,29,0.318,16.2,16.6,15.6,0.57,1.7,334,9.4,2.8,-0.00006,-0.00005,51.2,49.4,8,0,.,.,5.78,0.00,0.00
15min,AgWx,beryljct,423,21OCT2019:19:45:00,45.4,13.05,46.9,47.5,47.2,47.8,46.6,29,30,28,0.326,16.7,17.1,16.3,0,1.5,289,39,3.1,-0.00010,-0.00010,51.0,49.5,8,0,.,.,5.78,0.00,0.00
15min,AgWx,beryljct,423,21OCT2019:20:00:00,44.9,13.03,47.7,47.0,47.4,48.0,46.7,29,31,28,0.333,17.0,17.5,16.6,0.351,0.5,1.5,34,2.5,-0.00027,-0.00039,50.7,49.6,8,0,.,.,5.77,0.00,0.00
15min,AgWx,beryljct,423,21OCT2019:20:15:00,44.4,13.02,47.3,46.9,46.4,47.1,45.4,31,33,30,0.334,17.7,18.2,17.3,3.113,1.5,65,89,3.5,-0.00010,-0.00010,50.4,49.6,8,0,.,.,5.78,0.00,0.00
15min,AgWx,beryljct,423,21OCT2019:20:30:00,44.1,13.02,47.1,45.7,46.3,46.9,45.0,32,34,30,0.341,17.7,18.3,17.3,2.85,1.0,285,23,3.9,-0.00017,-0.00022,50.1,49.7,8,0,.,.,5.78,0.00,0.00
15min,AgWx,beryljct,423,21OCT2019:20:45:00,43.7,13.01,43.8,44.4,45.3,46.4,44.4,33,35,31,0.337,17.8,18.2,17.5,1.71,1.2,58,85,4.9,-0.00014,-0.00017,49.9,49.8,8,0,.,.,5.78,0.00,0.00
15min,AgWx,beryljct,423,21OCT2019:21:00:00,43.2,13,46.2,44.6,44.0,45.0,43.3,35,37,34,0.348,18.4,18.9,17.8,1.885,2.4,192,15,3.9,0.00001,0.00004,49.6,49.8,8,0,.,.,5.78,0.00,0.00
15min,AgWx,beryljct,423,21OCT2019:21:15:00,42.8,12.99,44.7,44.6,44.8,45.5,43.8,35,38,33,0.364,18.7,19.8,17.9,3.902,1.9,110,41,6.5,-0.00005,-0.00003,49.3,49.9,8,0,.,.,5.78,0.00,0.00
15min,AgWx,beryljct,423,21OCT2019:21:30:00,42.6,12.99,44.2,44.0,44.1,44.6,43.7,36,37,35,0.346,18.9,19.6,18.3,0,1.2,50,14,4.7,-0.00014,-0.00017,49.1,49.9,8,0,.,.,5.78,0.00,0.00
15min,AgWx,beryljct,423,21OCT2019:21:45:00,42.3,12.98,45.6,44.8,44.1,44.8,43.6,36,37,35,0.355,18.9,19.3,18.3,1.403,1.4,263,36,3.6,-0.00012,-0.00014,48.8,49.9,8,0,.,.,5.78,0.00,0.00
15min,AgWx,beryljct,423,21OCT2019:22:00:00,42.2,12.97,45.7,45.4,44.3,45.4,42.6,37,40,35,0.363,19.5,20.1,18.9,3.31,2.5,291,22,4.1,0.00001,0.00005,48.5,49.9,8,0,.,.,5.78,0.00,0.00
15min,AgWx,beryljct,423,21OCT2019:22:15:00,42.2,12.96,41.1,43.3,45.2,45.8,43.3,35,38,34,0.362,19.3,19.6,18.9,3.332,2.3,10,23,3.8,0.00001,0.00004,48.3,49.9,8,0,.,.,5.78,0.00,0.00
15min,AgWx,beryljct,423,21OCT2019:22:30:00,41.8,12.96,38.2,39.5,41.3,43.4,39.5,42,45,38,0.366,19.7,20.2,19.1,3.42,3.4,301,11,4.6,0.00008,0.00013,48.1,50.0,8,0,.,.,5.78,0.00,0.00
15min,AgWx,beryljct,423,21OCT2019:22:45:00,40.9,12.94,38.4,38.1,39.4,42.0,37.5,44,48,39,0.339,19.2,19.8,17.9,4.275,3.9,315,15,6.1,0.00009,0.00015,47.8,49.9,8,0,.,.,5.78,0.00,0.00
15min,AgWx,beryljct,423,21OCT2019:23:00:00,39.7,12.94,38.3,37.5,36.6,38.3,35.4,48,49,43,0.360,18.6,19.4,17.8,6.599,5.4,311,8.1,7.6,0.00014,0.00019,47.6,49.9,8,0,.,.,5.78,0.00,0.00
15min,AgWx,beryljct,423,21OCT2019:23:15:00,38.9,12.92,39.0,38.9,38.7,40.0,37.5,45,47,42,0.357,19.0,19.5,18.6,4.209,5.7,303,9.7,7.6,0.00017,0.00024,47.4,49.9,8,0,.,.,5.79,0.00,0.00
15min,AgWx,beryljct,423,21OCT2019:23:30:00,38.5,12.92,36.9,37.3,38.2,39.0,37.3,45,46,44,0.337,18.6,19.2,17.7,3.179,3.6,328,7.2,4.6,0.00007,0.00012,47.1,49.9,8,0,.,.,5.79,0.00,0.00
15min,AgWx,bigpiney,439,21OCT2019:00:00:00,25.8,12.55,23.0,22.8,23.3,23.6,22.8,79,80,78,0.333,17.7,17.9,17.5,0.68,2.2,151,14,3.2,-0.00004,-0.00004,38.1,40.0,43,0,0,0.0,5.47,0.00,0.00
15min,AgWx,bigpiney,439,21OCT2019:00:15:00,25.2,12.55,20.5,20.1,21.1,22.8,19.7,82,85,80,0.314,16.5,17.5,15.1,0.241,0.6,271,29,3.2,-0.00009,-0.00013,38.1,40.1,43,0,0,0.0,5.47,0.00,0.00
15min,AgWx,bigpiney,439,21OCT2019:00:30:00,24.6,12.54,22.8,22.3,21.8,22.5,20.1,83,86,81,0.331,17.3,17.9,16.1,0,0.6,215,15,2.4,-0.00009,-0.00013,38.0,40.0,43,0,0,0.0,5.47,0.00,0.00
15min,AgWx,bigpiney,439,21OCT2019:00:45:00,24.4,12.54,20.7,20.9,22.2,22.7,20.9,81,82,80,0.312,17.3,17.7,15.9,0,1.9,184,7.2,4.2,-0.00005,-0.00006,38.0,40.1,43,0,0,0.0,5.47,0.00,0.00
15min,AgWx,bigpiney,439,21OCT2019:01:00:00,24.3,12.53,23.9,22.8,21.3,22.8,20.5,83,84,81,0.342,17.0,18.1,15.9,0,0.0,339,4.0,0.8,-0.00012,-0.00019,38.0,40.0,43,0,0,0.0,5.47,0.00,0.00
15min,AgWx,bigpiney,439,21OCT2019:01:15:00,24.6,12.53,22.5,22.5,23.2,23.6,22.5,80,82,79,0.333,17.9,18.4,17.3,1.71,0.7,75,44,2.5,-0.00009,-0.00013,38.0,40.0,43,0,0,0.0,5.47,0.00,0.00
15min,AgWx,bigpiney,439,21OCT2019:01:30:00,24.9,12.52,24.2,23.3,22.8,23.5,22.3,83,84,81,0.347,18.3,18.8,17.5,2.587,1.8,19,48,4.0,-0.00006,-0.00007,38.0,40.0,43,0,0,0.0,5.47,0.00,0.00
15min,AgWx,bigpiney,439,21OCT2019:01:45:00,25.3,12.5,23.8,23.3,23.5,23.6,23.3,82,83,81,0.356,18.8,19.0,18.5,0,1.8,65,17,3.7,-0.00005,-0.00007,37.9,40.0,43,0,0,0.0,5.47,0.00,0.00
15min,AgWx,bigpiney,439,21OCT2019:02:00:00,25.7,12.5,23.9,23.5,23.4,23.6,23.3,83,84,83,0.357,19.1,19.2,19.0,0,0.3,202,11,1.8,-0.00011,-0.00016,37.9,40.0,43,0,0,0.0,5.47,0.00,0.00
15min,AgWx,bigpiney,439,21OCT2019:02:15:00,26.0,12.49,23.7,23.3,23.4,23.5,23.3,84,84,83,0.360,19.1,19.3,19.0,0.745,0.3,96,13,1.6,-0.00011,-0.00016,37.9,40.0,43,0,0,0.0,5.47,0.00,0.00
15min,AgWx,bigpiney,439,21OCT2019:02:30:00,26.3,12.49,23.5,23.2,23.3,23.5,23.2,85,86,84,0.366,19.4,19.7,19.2,0,0.0,147,0.0,0.6,-0.00012,-0.00020,37.9,40.0,43,0,0,0.0,5.47,0.00,0.00
15min,AgWx,bigpiney,439,21OCT2019:02:45:00,26.5,12.48,23.6,23.2,23.2,23.3,23.2,86,87,86,0.368,19.7,19.8,19.6,0,0.2,263,7.8,0.7,-0.00012,-0.00018,37.8,40.0,43,0,0,0.0,5.47,0.00,0.00
15min,AgWx,bigpiney,439,21OCT2019:03:00:00,26.6,12.47,23.4,23.2,23.1,23.2,23.1,87,87,86,0.369,19.8,20.0,19.6,1.556,1.0,349,45,2.7,-0.00009,-0.00012,37.8,40.0,43,0,0,0.0,5.47,0.00,0.00
15min,AgWx,bigpiney,439,21OCT2019:03:15:00,26.6,12.46,23.2,22.9,23.0,23.2,22.9,88,89,87,0.371,19.9,20.1,19.8,0,0.2,11,0.3,1.6,-0.00012,-0.00018,37.8,40.0,43,0,0,0.0,5.47,0.00,0.00
15min,AgWx,bigpiney,439,21OCT2019:03:30:00,26.6,12.46,23.2,22.9,23.0,23.1,22.9,89,90,89,0.375,20.2,20.5,20.0,0,1.0,339,20,2.0,-0.00009,-0.00012,37.8,40.0,43,0,0,0.0,5.47,0.00,0.00
15min,AgWx,bigpiney,439,21OCT2019:03:45:00,26.5,12.42,23.5,23.0,23.0,23.1,22.9,90,90,89,0.380,20.5,20.7,20.2,1.381,0.8,326,26,1.4,-0.00009,-0.00013,37.8,39.9,43,0,0,0.0,5.47,0.00,0.00
15min,AgWx,bigpiney,439,21OCT2019:04:00:00,26.1,12.44,23.2,22.9,23.0,23.2,22.9,90,90,90,0.377,20.5,20.7,20.4,2.126,1.6,6.6,6.5,2.1,-0.00007,-0.00009,37.7,39.9,43,0,0,0.0,5.47,0.00,0.00
15min,AgWx,bigpiney,439,21OCT2019:04:15:00,25.7,12.43,22.8,22.5,22.7,22.9,22.5,91,91,90,0.376,20.3,20.5,20.2,2.587,2.4,5.1,6.1,2.8,-0.00006,-0.00007,37.7,39.9,43,0,0,0.0,5.47,0.00,0.00
15min,AgWx,bigpiney,439,21OCT2019:04:30:00,25.1,12.41,22.1,21.6,22.0,22.5,21.6,91,92,91,0.365,19.8,20.3,19.5,2.718,1.3,341,8.8,2.9,-0.00008,-0.00010,37.7,40.0,43,0,0,0.0,5.47,0.00,0.00
15min,AgWx,bigpiney,439,21OCT2019:04:45:00,24.6,12.4,21.3,20.8,21.1,21.6,20.8,92,92,92,0.353,19.1,19.6,18.7,0.943,1.8,339,5.0,2.9,-0.00007,-0.00008,37.7,40.0,43,0,0,0.0,5.47,0.00,0.00
15min,AgWx,bigpiney,439,21OCT2019:05:00:00,24.0,12.39,20.2,20.0,20.5,20.9,20.0,92,92,92,0.341,18.5,18.9,18.0,2.981,1.8,319,18,3.0,-0.00007,-0.00008,37.7,40.0,43,0,0,0.0,5.47,0.00,0.00
15min,AgWx,bigpiney,439,21OCT2019:05:15:00,23.3,12.38,19.5,19.2,19.3,20.0,18.9,91,92,91,0.329,17.2,18.0,16.7,4.231,3.4,299,6.2,4.2,-0.00004,-0.00004,37.7,39.9,43,0,0,0.0,5.47,0.00,0.00
15min,AgWx,bigpiney,439,21OCT2019:05:30:00,22.5,12.36,19.3,18.8,18.6,19.2,18.0,91,92,91,0.322,16.4,17.2,15.7,3.639,3.3,284,12,4.6,-0.00004,-0.00004,37.6,39.9,43,0,0,0.0,5.47,0.00,0.00
15min,AgWx,bigpiney,439,21OCT2019:05:45:00,21.7,12.34,19.0,18.8,18.8,19.0,18.6,91,92,91,0.320,16.6,16.9,16.4,4.231,4.1,292,2.1,4.3,-0.00003,-0.00003,37.6,39.9,43,0,0,0.0,5.47,0.00,0.00
15min,AgWx,bigpiney,439,21OCT2019:06:00:00,21.1,12.33,18.7,17.8,17.9,18.9,17.1,90,91,89,0.304,15.4,16.6,14.5,2.872,3.5,279,10,4.3,-0.00003,-0.00004,37.6,39.9,43,0,0,0.0,5.47,0.00,0.00
15min,AgWx,bigpiney,439,21OCT2019:06:15:00,20.5,12.3,18.5,18.2,18.3,18.8,17.8,91,91,90,0.310,16.0,16.5,15.4,3.31,3.7,284,6.1,4.1,-0.00003,-0.00004,37.6,39.9,43,0,0,0.0,5.47,0.00,0.00
15min,AgWx,bigpiney,439,21OCT2019:06:30:00,19.8,12.28,14.9,14.5,15.9,18.2,14.4,89,90,87,0.260,13.2,15.8,11.3,3.858,3.0,265,13,4.5,-0.00003,-0.00004,37.6,39.9,43,0,0,0.0,5.47,0.00,0.00
15min,AgWx,bigpiney,439,21OCT2019:06:45:00,18.9,12.29,14.7,14.0,14.6,15.4,13.7,90,91,89,0.256,12.1,13.2,11.0,5.13,4.2,249,8.3,5.2,-0.00002,-0.00002,37.6,39.9,43,5,0,0.0,5.47,0.00,0.00
15min,AgWx,bigpiney,439,21OCT2019:07:00:00,18.1,12.35,14.6,13.6,13.7,14.6,12.7,89,90,88,0.250,11.0,12.3,9.7,2.258,3.0,238,13,5.0,-0.00014,-0.00012,37.5,39.8,43,28,0,0.0,5.47,0.00,0.00
15min,AgWx,bigpiney,439,21OCT2019:07:15:00,17.9,12.7,19.4,18.1,15.5,18.1,13.6,90,91,89,0.311,13.0,15.9,11.0,1.6,2.5,242,15,3.9,-0.00001,0.00000,37.5,39.8,43,80,0,0.0,5.47,0.00,0.00
15min,AgWx,bigpiney,439,21OCT2019:07:30:00,18.9,12.88,21.5,21.1,20.0,21.1,18.3,90,91,90,0.350,17.6,18.7,16.0,0,1.0,261,11,2.9,0.00003,0.00004,37.5,40.0,43,103,0,0.0,5.47,0.00,0.00
15min,AgWx,bigpiney,439,21OCT2019:07:45:00,20.4,13,21.4,20.9,20.7,21.2,20.3,89,90,89,0.347,18.0,18.8,17.5,0.022,1.0,330,18,1.7,0.00007,0.00008,37.5,39.9,43,95,0,0.0,5.47,0.00,0.00
15min,AgWx,bigpiney,439,21OCT2019:08:00:00,21.9,15.02,23.7,23.1,22.0,23.1,21.0,89,90,89,0.376,19.4,20.4,18.5,2.828,0.9,324,28,2.8,0.00035,0.00038,37.5,39.8,43,194,0,0.0,5.47,0.00,0.00
15min,AgWx,bigpiney,439,21OCT2019:08:15:00,24.3,14.82,25.5,25.2,24.4,25.6,23.1,88,89,85,0.392,21.2,22.1,20.2,2.938,2.3,306,21,3.9,0.00068,0.00075,37.5,39.9,43,285,0,0.0,5.47,0.00,0.00
15min,AgWx,bigpiney,439,21OCT2019:08:30:00,27.3,14.76,27.1,26.6,26.3,27.3,25.2,83,85,80,0.394,21.9,22.7,21.2,0,2.1,286,36,4.0,0.00082,0.00091,37.5,39.9,43,309,0,0.0,5.47,0.00,0.00
15min,AgWx,bigpiney,439,21OCT2019:08:45:00,29.9,14.04,28.1,27.9,27.4,28.2,26.6,80,81,77,0.409,21.9,22.7,21.3,0,0.5,295,39,2.6,0.00073,0.00079,37.4,39.8,43,260,0,0.0,5.47,0.00,0.00
15min,AgWx,bigpiney,439,21OCT2019:09:00:00,31.5,14.05,29.0,28.3,27.8,28.3,27.6,78,80,76,0.400,21.7,22.7,21.3,0,0.4,9.6,15,1.7,0.00065,0.00071,37.4,39.8,43,202,0,0.0,5.47,0.00,0.00